SL-14 DEB, 45346

Orbit data source: Space-Track

SL-14 DEB, 45346 is space debris in LEO originally from a launch on Thu, 15 Aug 1991 UTC launched from the Plesetsk Missile And Space Complex (PKMTR). Debris objects in space refer to the collection of defunct objects orbiting the Earth. Examples of debris include non-operational satellites, rocket bodies, and fragments generated from explosions, collisions, or faulty payload assembly.

Loading next visibility...
Identifier
45346, 1991-056CF
Orbit
LEO
Country
Flag of CISCIS
Related business
Manufacturer
Unknown
Mission
Spacecraft
Bus & Motor
Unknown
Mass
Unknown
Launch date (UTC)
1991-08-15 (35 years ago)
Launch vehicle
Unknown
Launch site
Plesetsk Missile And Space Complex (PKMTR)
Object type
Payload
Rocket body
Debris
Shape & HBR
Unknown shape, 0.1 m
Radar Cross Section
Medium (>0.1 m² and <1 m²)

Expand to show TLE details & history
Last TLE update: 6 hours ago

TLE from 6 hours ago
0 SL-14 DEB
1 45346U 91056CF  26168.14163286  .00003234  00000-0  60233-2 0  9995
2 45346  82.6306 124.4121 0047139 194.8009 165.1749 13.38487089305450
Epoch: 2026-06-17T03:23Z
TLE epoch observation values (Epoch: 2026-06-17T03:23:57.079Z)
Latitude
-0.00002°
Longitude
168.0207°
Altitude
1,151.923 km
Speed
7.26 km/s
True Right ascension
08h 17m 38s
True Declination
0° 00' 00"
Sunlit
Object was in daylight at epoch
Visualization orbit readout
Latitude
Unknown
Longitude
Unknown
Altitude
Unknown
Speed
Unknown
Apparent Right ascension
Unknown
Apparent Declination
Unknown
Sunlit
N/A
Visualization observer readout
Local Sidereal Time
20:06:18
Azimuth
Unknown
Elevation
Unknown
Doppler factor
Unknown
Orbital elements
Apogee altitude
1,147.44 km
Perigee altitude
1,076.823 km
Semi-major axis
7,490.269 km
Eccentricity
0.00471
Inclination
82.6306°
RAAN
124.4121°
Arg. of periapsis
194.8009°
True anomaly
165.31233°
Mean anomaly
165.1749°
Eccentric anomaly
165.24369°
Mean motion
3.34809 °/min
Orbital period
107.52 mins
BSTAR
0.0060233
Loading maneuver chart data...
Computing Atmospheric mass density...
Loading historical data...
Loading historical data...
Loading historical data...
Loading historical data...
Loading historical data...
Loading historical data...
Loading historical data...

Documentation

Showing up to 5 results
|